Location: Santiago
(33.4378°S, 70.6505°W)
Time: 13:28:15
(UTC+00:00)

ISS - Pass Details

Date: 08 April 2024
Orbit: 410 x 417 km, 51.6° (Epoch: 25 April)

Event Time Altitude Azimuth Distance (km) Brightness Sun altitude
Exits shadow 09:32:02 61° 218° (SW) 483 -3.7 -19.2°
Maximum altitude 09:32:33 86° 138° (SE) 428 -3.8 -19.1°
Drops below altitude 10° 09:36:02 - 47° (NE) 1,541 -0.3 -18.3°
Sets 09:37:59 0° 46° (NE) 2,348 0.7 -17.9°
